Regional Weather Roundup
Issued by NWS

Current Version | Previous Version | Text Only | Print | Product List | Glossary On
Versions: 1 2 3 4 5 6 7 8 9 10 11 12 13 14 15 16 17 18 19 20 21 22 23 24 25 26 27 28 29 30 31 32 33 34 35 36 37 38 39 40 41 42 43 44 45 46 47 48 49 50
862
ASUS44 KFWD 221715
RWRTX
NORTH TEXAS HOURLY WEATHER ROUNDUP
NATIONAL WEATHER SERVICE FORT WORTH TX
1200 PM CDT FRI MAY 22 2015

NOTE: "FAIR" INDICATES FEW OR NO CLOUDS BELOW 12,000 FEET WITH NO
SIGNIFICANT WEATHER AND/OR OBSTRUCTIONS TO VISIBILITY.

TXZ118-119-221800-
DALLAS/FORT WORTH METROPLEX

CITY           SKY/WX    TMP DP  RH WIND       PRES   REMARKS
DFW AIRPORT    CLOUDY    61  53  75 E8        30.15S
DALLAS LOVE    CLOUDY    64  52  64 E9        30.15F
FTW MEACHAM    CLOUDY    61  58  90 E12       30.14F FOG
DAL-EXECUTIVE  CLOUDY    63  55  75 E12       30.15F
FTW-ALLIANCE   CLOUDY    61  56  83 E12       30.14F
FTW-NAS-JRB    CLOUDY    62  60  93 E8        30.15S
FTW-SPINKS     CLOUDY    63  61  94 CALM      30.16S FOG
ARLINGTON      CLOUDY    62  54  74 E9        30.15S
GRAND PRAIRIE  CLOUDY    63  55  77 E7        30.16F
ADDISON        CLOUDY    63  52  67 E12G17    30.18S
MESQUITE       CLOUDY    64  54  68 E10       30.16F
LANCASTER      CLOUDY    63  52  65 SE8       30.17F
$$

TXZ091>094-102>105-117-120-121-131>134-221800-
NORTH CENTRAL TEXAS

CITY           SKY/WX    TMP DP  RH WIND       PRES   REMARKS
SHRMAN/DENISON CLOUDY    58  56  91 E12G20    30.17F
GAINESVILLE    CLOUDY    57  52  82 E10       30.18S
BOWIE          CLOUDY    56  56 100 E8        30.15F FOG
BRIDGEPORT     CLOUDY    60  60 100 SE9       30.16S FOG
DECATUR        CLOUDY    58  56  94 E12G18    30.15S
DENTON         CLOUDY    62  54  74 SE10      30.16R
MCKINNEY       CLOUDY    64  52  64 E13       30.16R
GREENVILLE     CLOUDY    64  52  63 E8        30.16F
ROCKWALL       CLOUDY    65  55  69 E9G16     30.15S
TERRELL        CLOUDY    65  55  70 SE10      30.16F
WAXAHACHIE     CLOUDY    61  61  99 E7        30.16F
CLEBURNE       CLOUDY    61  61 100 E12       30.15S FOG
GRANBURY       DRIZZLE   63  61  93 E6        30.15S
$$

TXZ083>090-098>101-113>116-127>130-139>142-154-155-221800-
WESTERN NORTH TEXAS

CITY           SKY/WX    TMP DP  RH WIND       PRES   REMARKS
WICHITA FALLS  RAIN      58  57  97 E13       30.14R FOG
WF-KICKAPOO    CLOUDY    61  59  92 E9G16     30.14S FOG
VERNON         CLOUDY    60  56  87 SE12      30.14F
ABILENE        CLOUDY    63  61  93 SE14      30.12S
ABILENE-DYESS  CLOUDY    63  59  87 S12       30.10S
BRECKENRIDGE   CLOUDY    65  63  95 SE12      30.11F FOG
GRAHAM         CLOUDY    62  61  98 SE12      30.10F
MINERAL WELLS  CLOUDY    62  60  93 SE15      30.12F FOG
STEPHENVILLE   CLOUDY    62  60  93 SE9       30.16S
COMANCHE       CLOUDY    64  64 100 SE9       30.13F FOG
BROWNWOOD      PTSUNNY   64  64 100 SE12      30.12F FOG
COLEMAN        CLOUDY    64  64  97 SE8       30.13R
$$

TXZ143>147-156>162-174-175-221800-
CENTRAL TEXAS

CITY           SKY/WX    TMP DP  RH WIND       PRES   REMARKS
WACO           CLOUDY    68  63  84 E12       30.14S
WACO-TSTC      CLOUDY    68  63  83 E6        30.14F
WACO-MCGREGOR  CLOUDY    68  61  77 SE8       30.15S
HILLSBORO      CLOUDY    64  60  88 E8        30.15S
CORSICANA      CLOUDY    66  60  81 E9        30.17R
MEXIA          CLOUDY    65  61  86 E8G21     30.15R
HEARNE         CLOUDY    68  64  85 E6        30.16R
CAMERON        CLOUDY    67  65  90 E7        30.14R
TEMPLE         CLOUDY    64  61  88 E12       30.13R
KILLEEN        CLOUDY    65  65  98 SE10      30.13R
KILLEEN-SKYLRK CLOUDY    66  61  82 SE9       30.13S
FORT HOOD      CLOUDY    65  64  97 E12       30.12R
GATESVILLE     CLOUDY    64  64 100 SE5       30.16S FOG
HAMILTON       CLOUDY    64  64 100 SE12G22   30.14F FOG
LAMPASAS       CLOUDY    65  65  97 E9        30.13R FOG
$$

TXZ095>097-106>112-122>126-135>138-148>153-164>167-221800-
EAST TEXAS

CITY           SKY/WX    TMP DP  RH WIND       PRES   REMARKS
PARIS          PTSUNNY   66  52  59 E15G21    30.19F
SULPHUR SPRNGS PTSUNNY   66  53  62 E12G17    30.19F
MOUNT PLEASANT PTSUNNY   67  53  61 E9        30.21F
GILMER         PTSUNNY   65  55  68 E7        30.19F
MINEOLA        PTSUNNY   66  57  72 SE6       30.19S
TYLER          CLOUDY    68  56  65 E10       30.17F
LONGVIEW       MOSUNNY   67  55  65 E9        30.19F
MARSHALL       PTSUNNY   68  57  66 E6        30.22F
ATHENS         PTSUNNY   64  57  77 E6        30.16S
PALESTINE      CLOUDY    67  61  80 E8        30.18F
JACKSONVILLE   PTSUNNY   66  58  75 SE7       30.19S HAZE
HENDERSON      PTSUNNY   66  56  71 E8        30.20F
NACOGDOCHES    CLOUDY    64  57  77 E9        30.18F
LUFKIN         CLOUDY    70  60  70 NE7       30.18S
$$

SUPPLEMENTAL OBSERVATIONS (CENTRAL)

CITY           SKY/WX    TMP DP  RH WIND       PRES   REMARKS
LAKE TEXOMA      N/A     57  52  82 E13         N/A
CADDO GRASSLND   N/A     63  50  63 E6          N/A
PAT MAYSE LAKE   N/A     63  50  63 E9          N/A
GREENVILLE       N/A     66  52  59 E12         N/A
CEDAR HILL       N/A     63  55  77 E2          N/A
ATHENS           N/A     66  55  68 E8G16       N/A
LAKE LIMESTONE   N/A     70  63  78 E6          N/A
MCGREGOR         N/A     64  61  88 E7          N/A
TEMPLE           N/A     66  64  94 E9          N/A
$$

SUPPLEMENTAL OBSERVATIONS (WEST)

CITY           SKY/WX    TMP DP  RH WIND       PRES   REMARKS
MILLERS CREEK    N/A     61  59  94 SW2G14      N/A
POSSUM KINGDOM   N/A     63  59  88 SE9         N/A
LBJ GRASSLAND    N/A     59  55  88 SE9         N/A
GRANBURY         N/A     63  59  88 E7          N/A
COMANCHE         N/A     64  61  88 SE12        N/A
HAMBY            N/A     64  61  88 S13         N/A
IVIE RESERVOIR   N/A     68  63  83 SE8         N/A
COLORADO BEND    N/A     66  64  94 S9          N/A
$$

SUPPLEMENTAL OBSERVATIONS (EAST)

CITY           SKY/WX    TMP DP  RH WIND       PRES   REMARKS
CLARKSVILLE      N/A     66  52  59 SE9         N/A
TEXARKANA        N/A     66  50  55 E5          N/A
LINDEN           N/A     66  52  59 E7          N/A
CADDO LAKE       N/A     66  54  63 NE6         N/A
GILMER           N/A     68  54  60 E6G14       N/A
HENDERSON        N/A     66  55  68 E9          N/A
LUFKIN           N/A     68  59  73 MISG        N/A
N SABINE NF      N/A     64  57  77 MISG        N/A
S SABINE NF      N/A     63  57  82 CALM        N/A
$$

SUPPLEMENTAL OBSERVATIONS ARE A COLLECTION OF AUTOMATED INSTRUMENTS
THAT ARE MAINTAINED BY A VARIETY OF FEDERAL AND STATE AGENCIES.
CERTAIN ELEMENTS...SUCH AS HUMIDITY VALUES AND SUSTAINED WIND
SPEEDS...MAY BE APPROXIMATED.




USA.gov is the U.S. government's official web portal to all federal, state and local government web resources and services.